Wind_Speed
14 14 13 12 10 9 9 11 10 9 11 12 12 12 12 12 13 14 14 14 13 14 17 18 18 18 17 15 15 16 16 17 18 19 19 18 19 20 20 20 20 20 21 21
14 13 12 12 11 10 9 10 10 11 11 13 13 13 13 13 14 14 14 14 15 16 17 17 18 19 18 17 16 17 17 18 18 19 18 18 18 19 19 19 20 21 21 22
13 13 14 13 12 11 11 10 11 12 12 12 12 12 12 13 15 14 14 14 15 16 16 16 17 19 19 18 17 17 17 18 18 18 18 18 18 18 19 19 20 21 21 22
14 14 14 14 13 11 10 10 10 12 12 11 13 13 12 13 14 15 14 15 16 16 17 16 17 18 18 18 17 17 17 18 18 18 18 18 18 18 19 19 20 20 21 21
13 13 13 12 11 10 9 10 10 11 12 13 13 15 13 13 13 15 15 15 15 15 17 17 17 17 17 16 16 17 18 18 19 19 19 18 17 18 18 18 18 19 20 20
12 13 13 12 12 12 11 11 10 11 13 13 12 14 14 13 13 14 15 16 15 15 16 17 17 16 17 17 16 17 17 18 18 19 18 17 17 17 17 18 19 19 20 20
13 13 13 12 12 11 12 12 12 13 13 13 12 15 14 13 14 15 16 15 16 15 16 16 17 17 17 17 17 17 17 17 18 17 17 17 17 17 18 18 19 19 20 19
14 13 13 13 13 12 12 13 13 14 14 14 14 16 14 14 14 15 15 15 16 15 16 16 16 17 18 17 16 16 16 17 17 17 17 16 16 17 17 18 18 19 19 19
12 12 13 13 12 13 13 13 13 14 15 15 15 15 14 13 15 16 16 15 16 16 16 15 16 17 17 16 17 16 16 16 16 16 16 16 16 16 17 18 18 19 19 19
13 13 13 13 13 14 14 14 15 16 18 18 16 15 15 15 16 16 17 17 16 16 14 15 16 17 17 17 17 16 15 16 16 16 15 15 15 16 17 17 18 18 18 18
15 14 14 14 15 15 15 16 17 17 18 17 17 17 15 15 15 16 17 17 15 14 14 15 16 16 16 16 16 15 15 16 16 16 15 15 15 16 16 17 17 17 17 17
17 16 15 15 15 15 16 16 16 17 18 18 18 16 15 14 14 15 15 15 14 14 15 16 16 16 16 16 15 16 16 15 15 15 14 15 15 15 15 16 16 17 17 17
18 17 16 16 16 17 18 17 17 18 17 18 19 17 15 15 15 15 15 14 14 15 15 15 15 15 16 16 16 16 15 14 14 14 14 14 14 14 15 15 16 16 16 16
19 20 19 19 18 18 18 19 19 19 19 20 19 18 17 16 16 15 14 14 15 15 15 15 15 15 16 16 16 15 14 14 13 13 12 13 13 14 14 14 15 15 15 15
21 22 22 21 21 21 21 20 21 21 21 21 20 19 18 17 16 15 15 16 16 15 16 16 16 15 14 14 14 14 13 13 13 12 12 12 12 13 14 14 15 15 15 15
23 24 24 23 22 23 23 22 22 21 21 20 20 19 18 18 17 16 17 17 17 17 17 16 15 16 15 14 14 13 13 12 12 12 11 12 13 13 14 14 15 15 15 15
24 24 24 23 23 24 24 23 22 21 21 21 20 20 19 19 19 19 18 17 17 16 17 17 16 16 15 14 13 13 13 12 12 12 11 11 12 13 14 15 15 15 15 15
24 25 25 24 24 25 24 24 23 23 23 22 21 20 21 21 21 20 20 19 18 18 17 17 17 16 16 15 15 14 13 12 12 12 12 12 13 14 14 15 15 15 15 15
25 24 24 25 26 26 25 24 24 24 24 23 23 22 22 22 22 21 21 19 19 19 19 17 17 17 16 16 14 13 13 13 13 13 13 13 13 14 14 15 16 16 16 16
26 25 25 25 26 26 25 24 24 24 25 23 23 23 23 23 23 22 21 20 19 19 19 19 18 18 17 16 15 14 14 14 14 14 14 14 14 14 14 15 16 16 16 16
27 26 26 26 26 26 26 24 23 24 24 23 23 23 24 24 23 22 21 21 21 21 20 20 19 18 17 16 16 15 15 15 15 16 15 15 15 15 15 16 16 16 16 16
27 27 27 27 28 27 25 24 24 24 24 24 24 24 24 25 25 24 23 22 22 21 21 20 20 19 18 17 17 17 17 17 17 17 17 17 17 17 17 17 16 16 15 15
29 29 28 28 28 27 26 26 27 27 27 26 26 25 25 26 26 26 25 24 23 22 22 21 21 20 19 18 18 18 18 18 18 19 18 18 18 18 17 16 16 15 15 14
29 29 29 28 28 28 28 27 27 28 29 28 27 27 26 27 27 27 27 26 26 23 22 22 21 21 20 20 20 19 18 18 19 19 18 18 18 18 17 17 16 15 14 14
26 27 28 29 29 28 28 27 28 28 29 29 29 28 28 28 28 28 27 28 27 25 24 23 22 22 22 22 21 20 19 19 20 19 19 18 18 18 17 17 17 16 15 14
27 26 27 28 28 28 29 29 28 28 28 29 29 30 30 29 29 29 29 28 27 26 26 24 23 24 24 23 22 21 20 20 20 20 20 19 18 18 18 17 18 17 16 15
Wind_Direction
211 212 214 220 226 242 252 243 243 258 262 263 264 268 271 276 288 303 307 311 311 314 316 320 319 318 317 316 314 313 311 310 311 311 311 310 309 308 306 304 303 303 303 302
212 213 215 219 226 240 253 243 242 253 257 267 268 270 274 276 282 295 301 308 315 318 319 320 319 319 316 314 312 308 310 309 313 314 313 310 310 309 306 304 303 303 303 303
216 215 220 224 225 235 249 246 246 256 255 261 270 272 275 282 284 297 304 310 316 317 317 319 317 317 316 313 311 310 313 314 314 312 312 312 312 310 308 306 305 305 306 305
221 220 224 228 230 239 251 253 256 257 256 262 269 266 268 281 285 297 304 310 313 317 320 320 318 314 314 313 311 311 315 316 316 315 313 314 313 312 311 309 308 307 307 307
217 218 222 224 230 240 249 248 255 261 266 264 267 269 275 280 289 298 300 305 310 313 316 316 316 313 313 315 314 314 314 315 317 317 317 316 315 314 314 313 311 311 309 309
213 216 221 229 236 239 248 253 260 266 266 267 266 271 280 286 290 296 300 302 305 308 312 313 313 312 314 316 315 316 315 314 316 317 317 316 316 316 318 317 316 315 313 312
214 218 226 234 238 238 246 256 262 265 266 269 271 276 283 285 291 296 300 301 306 309 317 319 312 310 314 314 314 315 315 316 317 319 318 315 315 316 317 319 319 320 320 317
221 217 222 231 242 244 249 259 266 270 272 271 268 276 283 286 291 296 299 304 311 313 315 315 313 319 320 315 313 314 314 317 319 320 318 316 316 316 317 319 322 324 324 322
230 224 227 236 242 244 249 258 265 271 275 276 275 277 281 286 292 297 300 306 311 314 314 315 316 318 321 320 317 317 318 318 321 320 319 318 317 318 320 321 323 323 323 323
237 234 232 236 238 245 253 261 265 269 278 275 277 283 290 295 295 294 296 300 309 308 311 313 316 320 321 321 317 317 320 321 321 319 318 320 319 319 320 324 325 324 325 327
243 244 240 241 247 249 260 266 267 272 280 280 280 287 289 291 295 296 295 300 307 309 308 311 316 317 318 318 316 319 319 319 318 318 317 319 320 320 323 325 326 327 330 332
249 252 250 249 255 260 262 264 267 270 276 277 283 287 286 286 294 299 297 302 308 310 309 311 312 313 316 318 317 319 319 319 319 320 320 320 321 324 326 328 329 330 331 332
251 253 255 253 255 259 261 264 268 270 274 277 282 288 289 290 289 296 299 299 306 309 308 311 313 314 315 316 315 316 318 317 318 319 320 323 324 325 327 331 333 334 334 337
248 249 252 256 260 260 261 263 265 268 272 276 281 285 287 292 292 294 296 299 304 306 306 308 312 313 312 314 315 317 321 320 321 322 321 322 324 325 328 330 334 337 340 342
250 250 252 256 259 259 260 262 262 265 268 274 279 282 286 288 289 291 293 296 297 302 304 306 309 309 309 313 315 317 319 322 321 322 322 324 327 331 333 334 335 338 343 343
252 255 256 257 256 256 258 259 262 264 267 271 275 277 280 281 281 284 288 292 295 297 301 306 307 309 310 312 313 315 315 317 320 322 321 323 326 330 332 334 335 337 338 339
253 256 259 259 260 259 258 259 260 262 264 268 271 275 277 278 281 284 287 291 295 297 300 302 303 303 304 304 309 312 312 312 315 318 318 318 321 324 325 327 329 330 334 336
257 257 259 262 261 260 261 260 261 262 264 267 269 272 273 277 280 282 284 286 289 293 296 298 299 298 296 296 297 300 304 308 309 312 312 314 315 319 321 323 326 328 330 332
260 263 264 263 262 261 261 262 263 263 264 266 268 269 271 275 279 280 281 282 283 287 291 293 295 292 290 290 290 292 296 301 304 307 310 311 312 314 317 321 324 325 327 330
261 262 263 263 263 262 262 263 264 264 264 265 266 268 270 274 276 278 279 279 280 284 286 288 289 287 284 283 284 287 292 297 299 301 303 305 309 313 315 318 321 322 325 329
263 262 263 264 264 266 265 264 264 261 262 262 263 267 269 271 273 275 277 278 277 278 282 283 284 286 285 283 283 285 289 292 294 296 298 300 304 308 310 313 316 319 322 326
264 265 266 266 267 267 266 264 261 260 261 263 264 266 267 269 271 272 273 275 274 275 278 278 280 281 282 282 282 284 287 289 291 293 295 297 299 303 305 307 310 315 320 324
261 264 265 267 267 268 267 264 262 261 262 264 264 265 266 267 269 269 269 271 271 271 274 274 276 277 278 279 281 283 285 287 290 292 293 295 296 300 302 303 307 311 315 319
259 260 262 264 265 265 266 264 263 263 262 264 265 264 266 266 267 266 267 267 267 269 268 268 269 271 273 276 279 282 285 285 287 291 289 290 293 297 299 300 303 306 310 314
258 258 260 261 263 263 263 263 261 263 263 262 264 264 263 264 265 265 266 265 266 267 269 267 266 269 272 275 278 279 281 282 284 286 286 287 289 292 294 296 298 299 303 308
257 258 260 262 262 263 263 262 262 264 264 263 263 262 262 264 265 267 268 268 268 269 268 268 267 268 271 273 275 277 278 279 281 282 283 284 284 287 289 291 294 294 297 301
Height
5851 5855 5857 5859 5861 5862 5862 5863 5864 5864 5863 5862 5862 5863 5863 5863 5863 5863 5863 5862 5860 5858 5856 5854 5852 5850 5847 5845 5843 5841 5839 5837 5834 5831 5829 5826 5823 5821 5818 5816 5813 5811 5808 5806
5850 5853 5855 5856 5858 5859 5860 5861 5861 5861 5860 5860 5860 5860 5860 5860 5861 5861 5860 5859 5858 5855 5853 5850 5848 5846 5844 5842 5839 5837 5835 5833 5830 5827 5824 5822 5819 5816 5814 5811 5808 5805 5803 5800
5848 5852 5853 5854 5855 5856 5857 5858 5859 5859 5859 5859 5858 5858 5858 5858 5857 5857 5857 5856 5854 5852 5850 5847 5845 5844 5841 5839 5836 5834 5831 5829 5826 5823 5820 5817 5814 5812 5809 5806 5803 5800 5798 5795
5847 5849 5850 5851 5853 5854 5855 5856 5856 5855 5855 5855 5856 5854 5856 5854 5854 5854 5854 5853 5851 5849 5847 5844 5842 5840 5838 5836 5833 5830 5827 5825 5822 5819 5816 5813 5810 5807 5804 5801 5798 5795 5793 5790
5845 5847 5847 5849 5851 5851 5852 5853 5853 5853 5852 5852 5852 5851 5853 5852 5852 5851 5851 5849 5848 5846 5844 5841 5839 5836 5834 5831 5829 5826 5823 5820 5818 5815 5812 5809 5806 5803 5800 5797 5794 5791 5788 5785
5843 5844 5845 5847 5849 5849 5850 5850 5850 5849 5849 5849 5850 5849 5850 5850 5849 5848 5847 5846 5844 5842 5840 5838 5836 5833 5829 5826 5824 5822 5819 5816 5814 5811 5807 5805 5802 5799 5796 5792 5789 5786 5783 5780
5840 5842 5843 5844 5845 5847 5847 5848 5847 5847 5846 5847 5847 5846 5847 5846 5846 5845 5843 5842 5841 5839 5836 5834 5832 5829 5825 5823 5821 5818 5815 5812 5809 5806 5803 5801 5798 5795 5792 5789 5785 5782 5779 5776
5837 5840 5841 5841 5842 5844 5844 5845 5845 5844 5843 5844 5844 5843 5844 5843 5842 5841 5839 5838 5837 5835 5833 5830 5828 5825 5821 5819 5817 5814 5811 5808 5805 5802 5800 5797 5794 5791 5788 5785 5782 5779 5775 5772
5834 5837 5838 5839 5840 5841 5841 5841 5841 5841 5840 5839 5840 5840 5840 5839 5838 5837 5836 5834 5833 5831 5829 5827 5825 5822 5818 5815 5813 5810 5807 5804 5801 5799 5796 5793 5790 5788 5785 5781 5778 5775 5772 5768
5831 5834 5835 5836 5837 5837 5837 5837 5838 5837 5836 5835 5836 5836 5837 5835 5834 5833 5832 5831 5829 5827 5825 5823 5821 5818 5815 5812 5809 5806 5803 5800 5798 5795 5793 5790 5787 5785 5781 5778 5775 5771 5768 5764
5828 5830 5832 5833 5833 5833 5834 5834 5833 5833 5832 5832 5831 5834 5833 5832 5831 5829 5828 5827 5825 5823 5821 5819 5816 5814 5811 5808 5805 5802 5800 5797 5795 5792 5790 5787 5784 5782 5779 5775 5772 5768 5765 5761
5825 5826 5827 5828 5829 5829 5830 5829 5829 5829 5828 5828 5827 5831 5828 5827 5827 5825 5823 5822 5821 5819 5817 5815 5812 5810 5807 5805 5802 5800 5797 5794 5792 5789 5786 5784 5781 5779 5776 5773 5769 5766 5762 5758
5820 5821 5822 5824 5826 5825 5824 5824 5824 5824 5824 5823 5823 5826 5823 5823 5822 5821 5819 5817 5816 5815 5813 5811 5808 5806 5804 5802 5800 5797 5794 5791 5788 5786 5783 5781 5779 5776 5773 5770 5767 5763 5760 5756
5814 5816 5818 5819 5819 5819 5819 5820 5820 5820 5819 5819 5819 5819 5819 5817 5817 5816 5815 5814 5812 5811 5809 5807 5805 5803 5801 5798 5796 5794 5791 5788 5785 5783 5781 5779 5777 5774 5771 5768 5765 5761 5758 5754
5808 5810 5811 5812 5813 5813 5814 5814 5815 5814 5814 5814 5814 5814 5814 5813 5812 5811 5811 5810 5808 5807 5805 5803 5801 5799 5797 5794 5792 5790 5787 5785 5783 5781 5778 5776 5774 5771 5769 5766 5763 5760 5756 5753
5802 5803 5804 5806 5806 5806 5807 5808 5809 5809 5808 5808 5808 5809 5809 5808 5808 5807 5806 5804 5804 5802 5801 5799 5797 5795 5793 5791 5789 5787 5784 5783 5780 5778 5776 5774 5771 5769 5767 5764 5761 5758 5755 5751
5797 5797 5798 5799 5800 5799 5800 5802 5802 5803 5802 5802 5802 5804 5803 5802 5802 5802 5801 5799 5798 5798 5797 5795 5793 5791 5789 5788 5786 5784 5782 5779 5778 5776 5773 5771 5769 5767 5765 5762 5759 5756 5753 5749
5789 5790 5790 5791 5793 5792 5795 5794 5795 5795 5796 5796 5797 5797 5797 5797 5797 5796 5795 5795 5794 5793 5792 5790 5789 5787 5785 5784 5782 5781 5779 5777 5775 5773 5771 5769 5767 5765 5763 5760 5757 5754 5751 5747
5782 5783 5783 5784 5784 5785 5787 5787 5787 5788 5789 5790 5790 5791 5791 5790 5790 5790 5789 5789 5788 5788 5787 5785 5784 5782 5781 5780 5778 5777 5775 5774 5772 5770 5769 5767 5765 5763 5760 5757 5755 5752 5749 5745
5775 5775 5775 5775 5776 5777 5780 5780 5780 5781 5781 5782 5783 5784 5784 5784 5784 5785 5784 5783 5782 5782 5781 5780 5778 5777 5776 5775 5774 5773 5772 5770 5769 5767 5766 5764 5762 5760 5758 5755 5752 5749 5746 5743
5767 5767 5767 5768 5768 5768 5770 5772 5773 5774 5775 5775 5776 5777 5777 5777 5777 5778 5777 5776 5776 5776 5775 5774 5772 5771 5770 5770 5770 5769 5768 5767 5765 5764 5762 5760 5758 5756 5754 5752 5749 5746 5743 5740
5759 5759 5760 5760 5760 5763 5762 5764 5765 5766 5766 5767 5768 5769 5769 5769 5769 5769 5769 5769 5769 5769 5768 5767 5766 5766 5766 5765 5765 5764 5763 5762 5761 5759 5758 5756 5754 5752 5750 5747 5745 5743 5740 5737
5750 5752 5752 5753 5754 5754 5754 5755 5756 5758 5758 5759 5760 5761 5761 5762 5762 5761 5761 5762 5761 5761 5761 5761 5761 5760 5760 5760 5759 5759 5758 5757 5756 5754 5753 5751 5749 5747 5745 5743 5741 5739 5737 5734
5742 5743 5744 5744 5745 5745 5746 5747 5748 5749 5750 5751 5752 5753 5753 5753 5754 5754 5754 5754 5754 5754 5754 5754 5754 5754 5754 5754 5753 5753 5752 5751 5750 5749 5747 5746 5745 5743 5741 5739 5737 5735 5733 5731
5734 5735 5735 5736 5737 5737 5738 5738 5739 5740 5741 5742 5743 5744 5745 5745 5745 5746 5746 5746 5746 5747 5747 5747 5747 5748 5748 5747 5747 5747 5746 5745 5744 5743 5742 5741 5739 5738 5736 5735 5733 5732 5730 5727
5726 5727 5728 5728 5728 5729 5730 5730 5730 5731 5732 5733 5734 5735 5736 5737 5737 5738 5738 5737 5738 5738 5739 5739 5740 5740 5740 5740 5740 5740 5739 5738 5738 5737 5736 5735 5734 5733 5732 5730 5729 5727 5725 5723